Location: Jihlava
(49.4000°N, 15.5830°E)
Time: 06:52:55
(UTC+02:00)

ISS - Visible Passes

Search period start: 18 May 2021 00:00
Search period end: 28 May 2021 00:00
Orbit: 417 x 422 km, 51.6° (Epoch: 18 May)

Date Brightness Start Highest point End Pass type
(mag) Time Alt. Az. Time Alt. Az. Time Alt. Az.
18 May -3.5 01:19:55 10° WNW 01:22:52 64° NW 01:22:52 64° NW visible
18 May -3.5 21:18:42 10° SW 21:21:58 49° SSE 21:25:15 10° ENE visible
18 May -3.3 22:55:25 10° W 22:58:46 62° N 23:02:08 10° ENE visible
19 May -3.5 00:32:27 10° WNW 00:35:48 67° N 00:36:27 51° ENE visible
19 May -1.0 02:09:21 10° WNW 02:09:23 10° WNW 02:09:23 10° WNW visible
19 May -3.5 22:07:55 10° W 22:11:16 72° NNW 22:14:39 10° ENE visible
19 May -3.2 23:44:58 10° WNW 23:48:18 59° N 23:50:16 22° E visible
20 May -1.9 01:21:50 10° WNW 01:23:12 22° W 01:23:12 22° W visible
20 May -3.7 21:20:24 10° WSW 21:23:46 89° NW 21:27:10 10° ENE visible
20 May -3.1 22:57:27 10° WNW 23:00:46 56° N 23:04:06 10° E visible
21 May -3.4 00:34:20 10° WNW 00:37:06 56° W 00:37:06 56° W visible
21 May -3.1 22:09:54 10° W 22:13:14 57° N 22:16:34 10° ENE visible
21 May -3.8 23:46:51 10° WNW 23:50:15 81° NNE 23:51:04 49° E visible
22 May -1.0 01:23:54 10° W 01:23:59 11° W 01:23:59 11° W visible
22 May -3.2 21:22:22 10° W 21:25:42 62° N 21:29:03 10° ENE visible
22 May -3.5 22:59:23 10° WNW 23:02:44 67° NNE 23:05:02 19° E visible
23 May -2.1 00:36:17 10° WNW 00:37:58 25° W 00:37:58 25° W visible
23 May -3.2 22:11:53 10° WNW 22:15:13 59° N 22:18:33 10° E visible
23 May -3.7 23:48:44 10° WNW 23:51:59 58° SW 23:51:59 58° SW visible
24 May -3.1 21:24:20 10° WNW 21:27:40 56° N 21:31:00 10° E visible
24 May -3.9 23:01:15 10° WNW 23:04:37 79° SSW 23:06:01 32° ESE visible
25 May -1.2 00:38:34 10° W 00:38:57 12° W 00:38:57 12° W visible
25 May -3.7 22:13:45 10° WNW 22:17:08 81° NNE 22:20:04 13° ESE visible
25 May -2.3 23:50:47 10° W 23:53:01 25° WSW 23:53:01 25° WSW visible
26 May -3.4 21:26:15 10° WNW 21:29:36 67° N 21:32:58 10° E visible
26 May -3.2 23:03:09 10° WNW 23:06:20 40° SSW 23:07:05 34° S visible
27 May -3.6 22:15:36 10° WNW 22:18:55 58° SSW 22:21:12 18° SE visible
27 May -1.2 23:53:35 10° WSW 23:54:09 12° WSW 23:54:09 12° WSW visible
